Flag for Colombia Weather past 2 weeks in Santa Marta, Colombia

Now
82 °F

Passing clouds.


Feels Like: 89 °F
Forecast: 79 / 87 °F
Wind: 5 mph from Southwest

Location: Santa Marta / Simon Bolivar

Current Time: Jan 31, 2015 at 10:25:38 AM

Latest Report: Jan 31, 2015 at 9:00 AM


Visibility: N/A

Pressure: 29.90 "Hg

Humidity: 79%

Dew point: 75 °F

Location of Santa MartaLocation

Historic Weather in Santa Marta — Graph

°F

Santa Marta temperature yesterday

Maximum temperature yesterday: 95 °F (at 3:00 PM)
Minimum temperature yesterday: 73 °F (at 6:00 AM)
Average temperature yesterday: 85 °F

Past Weeks' High & Low Weather Summary

 TemperatureHumidityPressure
High95 °F (Jan 22, 3:00 PM)89% (Jan 16, 9:00 AM)29.98 "Hg (Jan 16, 9:00 AM)
Low73 °F (Jan 20, 6:00 AM)44% (Jan 30, 3:00 PM)29.74 "Hg (Jan 29, 4:00 PM)
Average83 °F71%29.86 "Hg
* Reported Jan 16 9:00 AM — Jan 31 9:00 AM, Santa Marta, Weather by CustomWeather, © 2014

Note: Actual official high and low records may vary slightly from our data, if they occured in-between our weather recording intervals... More about our weather records

Advertising

Santa Marta weather history for previous 24 hours

 ConditionsComfort  
Time TempWeatherWind HumidityBarometerVisibility
9:00 AM
Jan 31
82 °FPassing clouds.5 mph79%29.90 "HgN/A
8:00 AM81 °FScattered clouds.No wind79%29.89 "HgN/A
7:00 AM77 °FPartly sunny.No wind79%29.86 "HgN/A
6:00 AM75 °FPassing clouds.No wind83%29.84 "HgN/A
11:00 PM
Jan 30
82 °FPassing clouds.5 mph62%29.81 "HgN/A
10:00 PM84 °FPassing clouds.7 mph58%29.82 "HgN/A
9:00 PM84 °FPassing clouds.14 mph62%29.80 "HgN/A
8:00 PM84 °FPassing clouds.12 mph62%29.78 "HgN/A
7:00 PM86 °FPassing clouds.9 mph59%29.78 "HgN/A
6:00 PM88 °FPassing clouds.14 mph55%29.76 "HgN/A
5:00 PM90 °FPassing clouds.16 mph52%29.75 "HgN/A
4:00 PM93 °FPassing clouds.12 mph47%29.76 "HgN/A
3:00 PM95 °FPassing clouds.16 mph44%29.77 "HgN/A
2:00 PM88 °FScattered clouds.12 mph70%29.79 "HgN/A
1:00 PM86 °FScattered clouds.7 mph75%29.83 "HgN/A
12:00 PM86 °FScattered clouds.7 mph75%29.85 "HgN/A
11:00 AM84 °FScattered clouds.7 mph79%29.88 "HgN/A
10:00 AM82 °FScattered clouds.7 mph79%29.88 "HgN/A
Weather by CustomWeather, © 2014

See weather overviewHow to use our weather pages